| time (UTC) | temp F | wind direction | speed MPH | gust MPH | rain 1hr in | rain 24hr in | rain mn in | humidity % | barometer mb |
| 20260902143059 | 56 | 169 | 1.0 | 4.0 | 0.00 | 0.01 | 0.00 | 93 | 1008.2 |
| 20260902141555 | 56 | 0 | 0.0 | 2.0 | 0.00 | 0.01 | 0.00 | 92 | 1008.3 |
| 20260902140111 | 55 | 0 | 0.0 | 0.0 | 0.00 | 0.01 | 0.00 | 92 | 1008.3 |
| 20260902134553 | 56 | 0 | 0.0 | 2.0 | 0.00 | 0.01 | 0.00 | 92 | 1008.6 |
| 20260902133101 | 56 | 0 | 0.0 | 1.0 | 0.00 | 0.01 | 0.00 | 92 | 1008.7 |
| 20260902131559 | 56 | 0 | 0.0 | 2.0 | 0.00 | 0.01 | 0.00 | 92 | 1008.9 |
| 20260902130056 | 56 | 0 | 0.0 | 1.0 | 0.00 | 0.01 | 0.00 | 92 | 1009.3 |
| 20260902124609 | 56 | 0 | 0.0 | 1.0 | 0.00 | 0.01 | 0.00 | 92 | 1009.5 |
| 20260902123100 | 55 | 0 | 1.0 | 2.0 | 0.00 | 0.01 | 0.00 | 93 | 1009.6 |
| 20260902121606 | 55 | 0 | 0.0 | 2.0 | 0.00 | 0.01 | 0.00 | 93 | 1009.7 |
| 20260902120058 | 55 | 0 | 0.0 | 0.0 | 0.00 | 0.01 | 0.00 | 94 | 1009.9 |
| 20260902114607 | 55 | 0 | 0.0 | 3.0 | 0.00 | 0.01 | 0.00 | 94 | 1010.2 |
| 20260902113100 | 55 | 0 | 0.0 | 0.0 | 0.00 | 0.01 | 0.00 | 94 | 1010.3 |
| 20260902111559 | 54 | 156 | 0.0 | 2.0 | 0.00 | 0.01 | 0.00 | 94 | 1010.4 |
| 20260902110052 | 54 | 0 | 0.0 | 0.0 | 0.00 | 0.01 | 0.00 | 93 | 1010.6 |
| 20260902104557 | 54 | 0 | 0.0 | 0.0 | 0.00 | 0.01 | 0.00 | 93 | 1010.6 |
| 20260902103115 | 54 | 0 | 0.0 | 2.0 | 0.00 | 0.01 | 0.00 | 93 | 1010.6 |
| 20260902101552 | 54 | 0 | 0.0 | 0.0 | 0.00 | 0.01 | 0.00 | 93 | 1010.7 |
| 20260902100049 | 54 | 0 | 0.0 | 0.0 | 0.00 | 0.01 | 0.00 | 92 | 1010.8 |
| 20260902094556 | 54 | 156 | 0.0 | 0.0 | 0.00 | 0.01 | 0.00 | 93 | 1010.8 |
| 20260902093102 | 54 | 0 | 0.0 | 0.0 | 0.00 | 0.01 | 0.00 | 93 | 1010.9 |
| 20260902091559 | 54 | 156 | 0.0 | 2.0 | 0.00 | 0.01 | 0.00 | 91 | 1010.9 |
| 20260902090100 | 54 | 0 | 0.0 | 2.0 | 0.00 | 0.01 | 0.00 | 90 | 1011.2 |
| 20260902084551 | 55 | 0 | 0.0 | 1.0 | 0.00 | 0.01 | 0.00 | 89 | 1011.3 |
| 20260902083059 | 56 | 166 | 0.0 | 4.0 | 0.00 | 0.01 | 0.00 | 88 | 1011.4 |
| 20260902081558 | 56 | 0 | 0.0 | 3.0 | 0.00 | 0.01 | 0.00 | 88 | 1011.5 |
| 20260902080053 | 57 | 0 | 0.0 | 3.0 | 0.00 | 0.01 | 0.00 | 87 | 1011.5 |
| 20260902074613 | 57 | 0 | 0.0 | 2.0 | 0.00 | 0.01 | 0.00 | 87 | 1011.6 |
| 20260902073104 | 57 | 0 | 1.0 | 5.0 | 0.00 | 0.01 | 0.00 | 87 | 1011.7 |
| 20260902071559 | 56 | 184 | 1.0 | 4.0 | 0.00 | 0.01 | 0.00 | 91 | 1011.8 |
| 20260902070055 | 55 | 119 | 0.0 | 5.0 | 0.00 | 0.01 | 0.00 | 92 | 1011.8 |
| 20260902064552 | 55 | 0 | 1.0 | 3.0 | 0.00 | 0.01 | 0.01 | 92 | 1011.9 |
| 20260902063057 | 55 | 0 | 0.0 | 3.0 | 0.00 | 0.01 | 0.01 | 91 | 1011.8 |
| 20260902061554 | 55 | 0 | 0.0 | 2.0 | 0.00 | 0.01 | 0.01 | 91 | 1011.9 |
| 20260902060104 | 55 | 283 | 0.0 | 3.0 | 0.00 | 0.01 | 0.01 | 91 | 1012.0 |
| 20260902054559 | 55 | 0 | 0.0 | 3.0 | 0.00 | 0.01 | 0.01 | 90 | 1012.0 |
| 20260902053102 | 56 | 0 | 0.0 | 2.0 | 0.00 | 0.01 | 0.01 | 89 | 1012.2 |
| 20260902051556 | 57 | 263 | 1.0 | 2.0 | 0.00 | 0.01 | 0.01 | 89 | 1012.3 |
| 20260902050049 | 57 | 0 | 0.0 | 3.0 | 0.00 | 0.01 | 0.01 | 88 | 1012.2 |
| 20260902044555 | 58 | 0 | 0.0 | 2.0 | 0.00 | 0.01 | 0.01 | 88 | 1012.4 |
| 20260902043056 | 58 | 0 | 0.0 | 2.0 | 0.00 | 0.01 | 0.01 | 87 | 1012.6 |
| 20260902041600 | 58 | 209 | 0.0 | 3.0 | 0.00 | 0.01 | 0.01 | 87 | 1012.4 |
| 20260902040105 | 58 | 315 | 1.0 | 3.0 | 0.00 | 0.01 | 0.01 | 87 | 1012.4 |
| 20260902034605 | 58 | 271 | 1.0 | 3.0 | 0.00 | 0.01 | 0.01 | 87 | 1012.4 |
| 20260902033100 | 59 | 269 | 1.0 | 3.0 | 0.00 | 0.01 | 0.01 | 85 | 1012.3 |
| 20260902031552 | 59 | 228 | 1.0 | 3.0 | 0.00 | 0.01 | 0.01 | 85 | 1012.5 |
| 20260902030057 | 61 | 0 | 0.0 | 3.0 | 0.00 | 0.01 | 0.01 | 83 | 1012.4 |
| 20260902024553 | 63 | 95 | 0.0 | 2.0 | 0.00 | 0.01 | 0.01 | 78 | 1012.3 |
| 20260902023050 | 64 | 163 | 0.0 | 1.0 | 0.00 | 0.01 | 0.01 | 73 | 1012.1 |
| 20260902021546 | 64 | 0 | 0.0 | 4.0 | 0.00 | 0.01 | 0.01 | 73 | 1012.1 |
| 20260902020100 | 63 | 232 | 1.0 | 7.0 | 0.00 | 0.01 | 0.01 | 75 | 1012.1 |
| 20260902014550 | 63 | 259 | 4.0 | 9.0 | 0.00 | 0.01 | 0.01 | 75 | 1012.1 |
| 20260902013057 | 64 | 251 | 3.0 | 7.0 | 0.00 | 0.01 | 0.01 | 76 | 1012.0 |
| 20260902011556 | 65 | 295 | 1.0 | 3.0 | 0.00 | 0.01 | 0.01 | 75 | 1011.9 |
| 20260902010055 | 65 | 0 | 1.0 | 4.0 | 0.00 | 0.01 | 0.01 | 75 | 1011.9 |
| 20260902004600 | 64 | 333 | 1.0 | 3.0 | 0.00 | 0.01 | 0.01 | 81 | 1011.9 |
| 20260902003057 | 63 | 352 | 0.0 | 2.0 | 0.00 | 0.01 | 0.01 | 83 | 1011.9 |
| 20260902001558 | 63 | 339 | 1.0 | 3.0 | 0.00 | 0.01 | 0.01 | 85 | 1011.9 |
| 20260902000050 | 63 | 312 | 1.0 | 3.0 | 0.00 | 0.01 | 0.01 | 85 | 1012.0 |
| 20260901234558 | 62 | 0 | 0.0 | 2.0 | 0.00 | 0.01 | 0.01 | 87 | 1012.1 |
| 20260901233101 | 62 | 0 | 0.0 | 3.0 | 0.00 | 0.01 | 0.01 | 89 | 1012.0 |
| 20260901231551 | 62 | 129 | 2.0 | 3.0 | 0.01 | 0.01 | 0.01 | 89 | 1012.1 |
| 20260901230059 | 62 | 303 | 0.0 | 4.0 | 0.01 | 0.01 | 0.01 | 88 | 1012.5 |
| 20260901224555 | 62 | 352 | 1.0 | 3.0 | 0.01 | 0.01 | 0.01 | 88 | 1012.4 |
| 20260901223059 | 62 | 360 | 1.0 | 3.0 | 0.01 | 0.01 | 0.01 | 87 | 1012.4 |
| 20260901221547 | 64 | 273 | 3.0 | 9.0 | 0.00 | 0.00 | 0.00 | 81 | 1012.4 |
| 20260901220113 | 65 | 238 | 3.0 | 9.0 | 0.00 | 0.00 | 0.00 | 72 | 1012.2 |
| 20260901214552 | 65 | 0 | 1.0 | 5.0 | 0.00 | 0.00 | 0.00 | 74 | 1012.1 |
| 20260901213104 | 64 | 176 | 0.0 | 7.0 | 0.00 | 0.00 | 0.00 | 76 | 1012.1 |
| 20260901211554 | 64 | 149 | 2.0 | 8.0 | 0.00 | 0.00 | 0.00 | 75 | 1012.1 |
| 20260901210050 | 64 | 0 | 1.0 | 5.0 | 0.00 | 0.00 | 0.00 | 75 | 1012.2 |
| 20260901204558 | 65 | 54 | 1.0 | 4.0 | 0.00 | 0.00 | 0.00 | 72 | 1012.2 |
| 20260901203055 | 65 | 0 | 1.0 | 4.0 | 0.00 | 0.00 | 0.00 | 72 | 1012.1 |
| 20260901201557 | 65 | 203 | 2.0 | 6.0 | 0.00 | 0.00 | 0.00 | 70 | 1012.2 |
| 20260901194604 | 65 | 76 | 1.0 | 6.0 | 0.00 | 0.00 | 0.00 | 73 | 1012.3 |
| 20260901193102 | 64 | 0 | 0.0 | 6.0 | 0.00 | 0.00 | 0.00 | 74 | 1012.4 |
| 20260901191548 | 64 | 215 | 1.0 | 3.0 | 0.00 | 0.00 | 0.00 | 74 | 1012.5 |
| 20260901190053 | 64 | 97 | 1.0 | 3.0 | 0.00 | 0.00 | 0.00 | 75 | 1012.8 |
| 20260901184557 | 63 | 87 | 0.0 | 6.0 | 0.00 | 0.00 | 0.00 | 75 | 1012.9 |
| 20260901183048 | 63 | 115 | 2.0 | 7.0 | 0.00 | 0.00 | 0.00 | 75 | 1012.9 |
| 20260901181556 | 63 | 0 | 1.0 | 8.0 | 0.00 | 0.00 | 0.00 | 74 | 1012.9 |
| 20260901180055 | 63 | 82 | 2.0 | 6.0 | 0.00 | 0.00 | 0.00 | 76 | 1012.9 |
| 20260901174552 | 63 | 87 | 2.0 | 9.0 | 0.00 | 0.00 | 0.00 | 76 | 1012.8 |
| 20260901173057 | 63 | 107 | 1.0 | 10.0 | 0.00 | 0.00 | 0.00 | 77 | 1012.8 |
| 20260901171557 | 62 | 273 | 1.0 | 6.0 | 0.00 | 0.00 | 0.00 | 77 | 1012.8 |
| 20260901170115 | 62 | 0 | 1.0 | 4.0 | 0.00 | 0.00 | 0.00 | 80 | 1012.6 |
| 20260901164552 | 60 | 0 | 0.0 | 3.0 | 0.00 | 0.00 | 0.00 | 84 | 1012.8 |
| 20260901163056 | 60 | 0 | 1.0 | 3.0 | 0.00 | 0.00 | 0.00 | 85 | 1012.9 |
| 20260901161558 | 59 | 27 | 0.0 | 3.0 | 0.00 | 0.00 | 0.00 | 86 | 1012.7 |
| 20260901154552 | 58 | 82 | 0.0 | 1.0 | 0.00 | 0.00 | 0.00 | 87 | 1012.8 |
| 20260901153051 | 58 | 0 | 0.0 | 3.0 | 0.00 | 0.00 | 0.00 | 88 | 1012.9 |
| 20260901151554 | 57 | 95 | 1.0 | 3.0 | 0.00 | 0.00 | 0.00 | 88 | 1012.9 |
| 20260901150107 | 57 | 96 | 1.0 | 3.0 | 0.00 | 0.00 | 0.00 | 88 | 1012.8 |
| 20260901144550 | 57 | 188 | 0.0 | 2.0 | 0.00 | 0.00 | 0.00 | 88 | 1012.7 |